Location: Albuquerque Trailhead
(34.7934°N, 106.3736°W)
Time: 02:20:20
(UTC+00:00)

Uosat 12 SS-18 rocket - Pass Details

Date: 20 June 2021
Orbit: 587 x 1397 km, 64.6° (Epoch: 27 July)

Event Time Altitude Azimuth Distance (km) Brightness Sun altitude
Exits shadow 04:06:18 37° 128° (SE) 944 4.5 -17.7°
Maximum altitude 04:06:43 38° 113° (ESE) 931 4.5 -17.8°
Drops below altitude 10° 04:10:55 10° 45° (NE) 2,060 6.8 -18.3°
Sets 04:13:29 0° 38° (NE) 3,067 7.8 -18.7°
